Terminal Aerodrome Forecast
Issued by NWS

Home | Current Version | Previous Version | Text Only | Print | Product List | Glossary Off
Versions: 1 2 3 4 5 6 7 8 9 10 11 12 13 14 15 16 17 18 19 20 21 22 23 24 25 26 27 28 29 30 31 32 33 34 35 36 37 38 39 40 41 42 43 44 45 46 47 48 49 50

000
FTUS43 KLOT 251600 AAB
TAFGYY
TAF AMD
KGYY 251613Z 2516/2612 20012G17KT P6SM VCSH SCT080 BKN120
      TEMPO 2519/2521 -RA BKN080
     FM252100 19012G17KT P6SM FEW040 BKN060
     FM260100 19010KT P6SM VCSH OVC080
     FM260500 19010KT 6SM SHRA OVC060 PROB30 2605/2609 4SM TSRA
      OVC040CB
     FM260900 22007KT 6SM BR BKN040=

USA.gov is the U.S. government's official web portal to all federal, state and local government web resources and services.